Total_Precipitation_Accumulation
0.73 0.76 0.77 0.80 0.85 0.86 0.83 0.77 0.72 0.68 0.65 0.63 0.60 0.58 0.57 0.56 0.55 0.55 0.52 0.49 0.46 0.45 0.43 0.43 0.44 0.42 0.42 0.42 0.46 0.57 0.68 0.80 0.90 0.74 0.64 0.65 0.71 0.69 0.69 0.68 0.65 0.66 0.76
0.59 0.61 0.62 0.62 0.62 0.64 0.66 0.66 0.62 0.60 0.59 0.57 0.51 0.49 0.46 0.43 0.40 0.37 0.35 0.33 0.35 0.37 0.38 0.40 0.41 0.40 0.39 0.39 0.44 0.52 0.62 0.77 0.93 0.89 0.75 0.75 0.76 0.73 0.80 0.80 0.70 0.60 0.67
0.51 0.53 0.53 0.53 0.52 0.53 0.54 0.52 0.50 0.49 0.51 0.48 0.45 0.43 0.40 0.39 0.35 0.31 0.30 0.29 0.31 0.34 0.36 0.39 0.40 0.46 0.46 0.46 0.52 0.58 0.63 0.71 0.88 0.93 0.85 0.86 0.90 0.93 1.04 0.95 0.81 0.76 0.60
0.51 0.50 0.50 0.52 0.52 0.50 0.48 0.46 0.43 0.43 0.45 0.48 0.48 0.40 0.33 0.30 0.30 0.28 0.25 0.26 0.28 0.30 0.33 0.38 0.41 0.49 0.54 0.56 0.57 0.61 0.67 0.76 0.83 0.93 0.93 0.97 1.01 1.06 1.12 1.09 0.92 0.79 0.69
0.50 0.50 0.53 0.56 0.56 0.54 0.53 0.51 0.49 0.46 0.43 0.43 0.44 0.41 0.36 0.30 0.26 0.23 0.20 0.23 0.28 0.32 0.33 0.34 0.38 0.46 0.54 0.51 0.48 0.51 0.64 0.81 0.86 0.95 0.98 0.96 0.94 1.04 1.06 0.92 0.82 0.72 0.64
0.59 0.60 0.60 0.59 0.56 0.55 0.54 0.53 0.53 0.51 0.46 0.42 0.41 0.39 0.36 0.27 0.25 0.21 0.18 0.23 0.29 0.34 0.36 0.35 0.31 0.33 0.32 0.34 0.39 0.45 0.56 0.77 1.03 1.16 1.08 1.00 0.88 0.88 0.90 0.85 0.83 0.78 0.72
0.72 0.68 0.61 0.56 0.55 0.52 0.48 0.49 0.50 0.48 0.44 0.40 0.36 0.34 0.32 0.26 0.21 0.18 0.17 0.21 0.30 0.38 0.40 0.37 0.28 0.21 0.26 0.32 0.35 0.38 0.50 0.66 0.90 1.20 1.27 1.02 0.93 0.88 0.90 0.91 0.92 0.94 0.87
0.72 0.66 0.56 0.49 0.50 0.51 0.50 0.49 0.45 0.41 0.40 0.40 0.37 0.34 0.31 0.21 0.16 0.14 0.15 0.21 0.30 0.34 0.35 0.36 0.36 0.33 0.27 0.29 0.33 0.41 0.55 0.69 0.78 0.87 1.15 1.00 0.81 0.79 0.83 0.84 0.89 0.91 0.84
0.69 0.57 0.45 0.40 0.42 0.43 0.43 0.43 0.42 0.40 0.39 0.35 0.30 0.30 0.30 0.24 0.15 0.12 0.13 0.21 0.26 0.27 0.28 0.27 0.25 0.27 0.26 0.35 0.50 0.68 0.82 0.95 0.90 1.01 1.17 1.13 1.02 0.93 0.80 0.79 0.91 0.92 0.89
0.50 0.41 0.37 0.34 0.32 0.31 0.32 0.35 0.36 0.37 0.35 0.28 0.24 0.26 0.27 0.24 0.13 0.10 0.11 0.18 0.25 0.27 0.30 0.31 0.24 0.22 0.30 0.45 0.68 0.91 1.03 1.12 1.03 1.10 1.31 1.36 1.20 1.16 1.12 1.00 1.00 0.95 0.90
0.34 0.30 0.28 0.26 0.23 0.23 0.28 0.32 0.33 0.31 0.30 0.27 0.27 0.26 0.21 0.13 0.09 0.08 0.08 0.12 0.20 0.28 0.33 0.40 0.38 0.30 0.37 0.55 0.76 0.91 1.04 1.11 1.16 1.20 1.20 1.18 1.23 1.24 1.16 1.07 0.99 0.88 0.83
0.27 0.25 0.22 0.20 0.14 0.15 0.25 0.28 0.27 0.30 0.29 0.27 0.27 0.25 0.20 0.15 0.08 0.05 0.05 0.06 0.11 0.27 0.42 0.44 0.44 0.39 0.44 0.64 0.80 0.99 1.18 1.30 1.27 1.26 1.08 0.98 0.93 0.93 0.94 0.86 0.77 0.68 0.66
0.27 0.28 0.25 0.21 0.18 0.16 0.20 0.23 0.23 0.25 0.23 0.20 0.21 0.21 0.18 0.18 0.12 0.03 0.03 0.04 0.08 0.20 0.34 0.39 0.43 0.45 0.61 0.93 1.10 1.24 1.38 1.45 1.44 1.26 1.04 0.94 0.81 0.72 0.70 0.72 0.69 0.62 0.56
0.32 0.30 0.29 0.28 0.24 0.18 0.17 0.14 0.15 0.17 0.18 0.19 0.20 0.21 0.20 0.19 0.13 0.09 0.11 0.12 0.13 0.20 0.35 0.47 0.57 0.64 0.83 1.12 1.33 1.50 1.54 1.41 1.21 1.09 0.97 0.90 0.76 0.67 0.66 0.60 0.57 0.56 0.58
0.29 0.24 0.22 0.21 0.20 0.19 0.16 0.09 0.08 0.09 0.08 0.11 0.14 0.14 0.17 0.15 0.08 0.08 0.11 0.12 0.15 0.19 0.32 0.51 0.68 0.81 1.00 1.20 1.36 1.42 1.40 1.28 1.14 0.94 0.83 0.85 0.82 0.74 0.68 0.57 0.49 0.45 0.52
0.25 0.20 0.15 0.12 0.12 0.13 0.17 0.13 0.05 0.03 0.03 0.03 0.05 0.06 0.07 0.07 0.06 0.07 0.10 0.14 0.17 0.24 0.35 0.53 0.65 0.76 0.94 1.16 1.28 1.25 1.15 1.08 0.98 0.84 0.77 0.73 0.73 0.69 0.65 0.55 0.46 0.45 0.51
0.20 0.16 0.10 0.08 0.09 0.10 0.15 0.22 0.19 0.11 0.05 0.05 0.04 0.04 0.04 0.04 0.05 0.07 0.11 0.17 0.19 0.26 0.35 0.53 0.64 0.74 0.90 1.06 1.12 1.10 1.06 0.96 0.86 0.78 0.73 0.67 0.61 0.57 0.51 0.45 0.42 0.44 0.43
0.11 0.07 0.06 0.09 0.08 0.09 0.12 0.13 0.16 0.20 0.23 0.20 0.10 0.05 0.04 0.06 0.07 0.08 0.11 0.16 0.22 0.26 0.39 0.54 0.64 0.71 0.79 0.86 0.93 0.98 0.99 0.91 0.80 0.73 0.72 0.67 0.60 0.52 0.43 0.39 0.38 0.34 0.34
0.07 0.09 0.08 0.07 0.07 0.07 0.08 0.09 0.10 0.14 0.18 0.20 0.17 0.11 0.08 0.10 0.12 0.15 0.17 0.21 0.28 0.35 0.44 0.55 0.62 0.67 0.69 0.69 0.75 0.81 0.84 0.82 0.74 0.69 0.67 0.65 0.58 0.50 0.40 0.32 0.27 0.17 0.20
0.05 0.02 0.03 0.04 0.03 0.04 0.05 0.07 0.07 0.10 0.14 0.18 0.19 0.16 0.16 0.23 0.28 0.29 0.25 0.23 0.27 0.35 0.43 0.50 0.55 0.59 0.57 0.57 0.58 0.62 0.65 0.65 0.62 0.59 0.56 0.54 0.47 0.37 0.30 0.24 0.21 0.20 0.22
0.03 0.01 0.01 0.02 0.03 0.03 0.03 0.04 0.06 0.08 0.13 0.18 0.17 0.14 0.20 0.28 0.34 0.34 0.33 0.31 0.33 0.37 0.40 0.42 0.44 0.46 0.45 0.44 0.44 0.45 0.49 0.53 0.54 0.55 0.52 0.47 0.37 0.29 0.23 0.19 0.15 0.14 0.14
0.01 0.01 0.01 0.02 0.02 0.01 0.02 0.03 0.05 0.07 0.09 0.13 0.15 0.15 0.22 0.26 0.30 0.34 0.36 0.38 0.38 0.38 0.37 0.36 0.37 0.38 0.37 0.37 0.36 0.36 0.39 0.42 0.48 0.52 0.52 0.45 0.34 0.25 0.19 0.15 0.12 0.11 0.10
0.01 0.01 0.01 0.01 0.01 0.00 0.01 0.02 0.04 0.05 0.07 0.09 0.11 0.14 0.20 0.27 0.33 0.37 0.39 0.38 0.38 0.37 0.33 0.30 0.32 0.34 0.33 0.30 0.29 0.31 0.33 0.37 0.42 0.49 0.51 0.44 0.32 0.23 0.18 0.15 0.14 0.12 0.09
0.00 0.01 0.00 0.01 0.00 0.00 0.01 0.02 0.02 0.03 0.05 0.07 0.10 0.13 0.18 0.26 0.33 0.40 0.43 0.41 0.39 0.38 0.35 0.33 0.32 0.31 0.27 0.23 0.21 0.20 0.21 0.26 0.35 0.43 0.44 0.41 0.31 0.22 0.15 0.13 0.12 0.10 0.09
0.00 0.01 0.01 0.00 0.00 0.00 0.01 0.01 0.01 0.02 0.03 0.04 0.06 0.08 0.12 0.16 0.22 0.30 0.39 0.43 0.43 0.43 0.39 0.37 0.36 0.32 0.26 0.19 0.15 0.13 0.17 0.24 0.30 0.33 0.37 0.35 0.26 0.20 0.16 0.14 0.11 0.07 0.07
0.01 0.00 0.00 0.00 0.00 0.00 0.00 0.01 0.01 0.01 0.01 0.02 0.03 0.04 0.05 0.08 0.12 0.18 0.26 0.32 0.37 0.42 0.46 0.49 0.46 0.36 0.26 0.20 0.17 0.17 0.19 0.19 0.19 0.20 0.26 0.28 0.21 0.17 0.16 0.14 0.08 0.05 0.06